Location: Blackwater Beach
(38.5801°N, 75.1577°W)
Time: 03:40:58
(UTC+00:00)

Cosmos 2297 Rocket - Pass Details

Date: 21 May 2026
Orbit: 838 x 842 km, 71.0° (Epoch: 9 June)

Event Time Altitude Azimuth Distance (km) Brightness Sun altitude
Exits shadow 03:14:47 67° 88° (E) 909 2.1 -26.5°
Drops below altitude 10° 03:20:05 10° 28° (NNE) 2,460 5.0 -27.0°
Sets 03:22:32 0° 26° (NNE) 3,399 5.9 -27.2°
